Time,TemperatureF,DewpointF,PressureIn,WindDirection,WindDirectionDegrees,WindSpeedMPH,WindSpeedGustMPH,Humidity,HourlyPrecipIn,Conditions,Clouds,dailyrainin,SolarRadiationWatts/m^2,SoftwareType,DateUTC
2013-02-07 00:03:00,25.2,23.7,29.60,East,96,2.3,2.3,94,0.00,RA,,0.00,0.0,WeatherDisplay:10.37,2013-02-07 09:03:00,
2013-02-07 00:08:00,25.2,23.7,29.60,East,96,1.1,1.1,94,0.00,RA,,0.00,0.0,WeatherDisplay:10.37,2013-02-07 09:08:00,
2013-02-07 00:13:00,25.2,23.7,29.60,East,96,1.1,1.1,94,0.00,OVC,,0.00,0.0,WeatherDisplay:10.37,2013-02-07 09:13:00,
2013-02-07 00:18:00,25.2,24.0,29.60,East,96,2.3,0.0,95,0.00,OVC,,0.00,0.0,WeatherDisplay:10.37,2013-02-07 09:18:00,
2013-02-07 00:23:00,25.3,23.8,29.60,East,96,1.1,1.1,94,0.00,OVC,,0.00,0.0,WeatherDisplay:10.37,2013-02-07 09:23:00,
2013-02-07 00:28:00,25.3,23.8,29.60,East,96,2.3,2.3,94,0.00,OVC,,0.00,0.0,WeatherDisplay:10.37,2013-02-07 09:28:00,
2013-02-07 00:33:00,25.3,23.8,29.60,East,96,1.1,1.1,94,0.00,OVC,,0.00,0.0,WeatherDisplay:10.37,2013-02-07 09:33:00,
2013-02-07 00:38:00,25.3,23.8,29.59,East,96,1.1,0.0,94,0.00,OVC,,0.00,0.0,WeatherDisplay:10.37,2013-02-07 09:38:00,
2013-02-07 00:43:00,25.3,23.8,29.59,East,96,1.1,0.0,94,0.00,OVC,,0.00,0.0,WeatherDisplay:10.37,2013-02-07 09:43:00,
2013-02-07 00:48:00,25.3,23.8,29.59,East,96,2.3,2.3,94,0.00,OVC,,0.00,0.0,WeatherDisplay:10.37,2013-02-07 09:48:00,
2013-02-07 00:53:00,25.3,23.8,29.59,East,96,2.3,2.3,94,0.00,OVC,,0.00,0.0,WeatherDisplay:10.37,2013-02-07 09:53:00,
2013-02-07 00:58:00,25.4,23.9,29.59,East,96,1.1,1.1,94,0.00,OVC,,0.00,0.0,WeatherDisplay:10.37,2013-02-07 09:58:00,
2013-02-07 01:03:00,25.4,23.9,29.59,East,96,2.3,2.3,94,0.00,OVC,,0.00,0.0,WeatherDisplay:10.37,2013-02-07 10:03:00,
2013-02-07 01:08:00,25.4,23.9,29.59,East,95,3.5,3.5,94,0.00,OVC,,0.00,0.0,WeatherDisplay:10.37,2013-02-07 10:08:00,
2013-02-07 01:13:00,25.4,23.9,29.59,ENE,70,3.5,3.5,94,0.00,OVC,,0.00,0.0,WeatherDisplay:10.37,2013-02-07 10:13:00,
2013-02-07 01:18:00,25.2,23.7,29.59,ENE,70,2.0,2.0,94,0.00,OVC,,0.00,0.0,WeatherDisplay:10.37,2013-02-07 10:18:00,
2013-02-07 01:23:00,25.1,23.6,29.58,ENE,70,2.3,2.3,94,0.00,OVC,,0.00,0.0,WeatherDisplay:10.37,2013-02-07 10:23:00,
2013-02-07 01:28:00,24.8,23.1,29.58,ENE,65,3.5,3.5,93,0.00,OVC,,0.00,0.0,WeatherDisplay:10.37,2013-02-07 10:28:00,
2013-02-07 01:33:00,24.6,23.1,29.58,ENE,64,1.1,1.1,94,0.00,SCT,,0.00,0.0,WeatherDisplay:10.37,2013-02-07 10:33:00,
2013-02-07 01:38:00,24.5,23.0,29.57,ENE,64,1.1,0.0,94,0.00,SCT,,0.00,0.0,WeatherDisplay:10.37,2013-02-07 10:38:00,
2013-02-07 01:43:00,24.3,22.8,29.58,ENE,64,1.1,1.1,94,0.00,SCT,,0.00,0.0,WeatherDisplay:10.37,2013-02-07 10:43:00,
2013-02-07 01:48:00,24.1,22.6,29.58,ENE,64,0.0,0.0,94,0.00,SCT,,0.00,0.0,WeatherDisplay:10.37,2013-02-07 10:48:00,
2013-02-07 01:53:00,24.0,22.5,29.58,ENE,64,1.1,0.0,94,0.00,SCT,,0.00,0.0,WeatherDisplay:10.37,2013-02-07 10:53:00,
2013-02-07 01:59:00,23.8,22.3,29.57,ENE,64,2.3,2.3,94,0.00,SCT,,0.00,0.0,WeatherDisplay:10.37,2013-02-07 10:59:00,
2013-02-07 02:04:00,23.8,22.3,29.57,ENE,64,2.3,2.3,94,0.00,SCT,,0.00,0.0,WeatherDisplay:10.37,2013-02-07 11:04:00,
2013-02-07 02:09:00,23.8,22.3,29.57,ESE,102,3.5,3.5,94,0.00,SCT,,0.00,0.0,WeatherDisplay:10.37,2013-02-07 11:09:00,
2013-02-07 02:14:00,24.0,22.8,29.57,ENE,77,4.6,4.6,95,0.00,SCT,,0.00,0.0,WeatherDisplay:10.37,2013-02-07 11:14:00,
2013-02-07 02:19:00,24.2,23.0,29.57,ESE,102,2.3,2.3,95,0.00,SCT,,0.00,0.0,WeatherDisplay:10.37,2013-02-07 11:19:00,
2013-02-07 02:24:00,24.3,23.1,29.56,ESE,102,2.3,2.3,95,0.00,SCT,,0.00,0.0,WeatherDisplay:10.37,2013-02-07 11:24:00,
2013-02-07 02:29:00,24.5,23.3,29.56,ENE,71,4.6,4.6,95,0.00,SCT,,0.00,0.0,WeatherDisplay:10.37,2013-02-07 11:29:00,
2013-02-07 02:34:00,24.6,23.4,29.56,ESE,102,2.3,2.3,95,0.00,BKN,,0.00,0.0,WeatherDisplay:10.37,2013-02-07 11:34:00,
2013-02-07 02:39:00,24.7,23.5,29.56,East,98,5.8,5.8,95,0.00,BKN,,0.00,0.0,WeatherDisplay:10.37,2013-02-07 11:39:00,
2013-02-07 02:44:00,24.8,23.6,29.56,ENE,65,4.6,4.6,95,0.00,BKN,,0.00,0.0,WeatherDisplay:10.37,2013-02-07 11:44:00,
2013-02-07 02:49:00,24.8,23.6,29.56,ENE,68,3.5,3.5,95,0.00,BKN,,0.00,0.0,WeatherDisplay:10.37,2013-02-07 11:49:00,
2013-02-07 02:54:00,24.8,23.6,29.55,ENE,65,7.0,7.0,95,0.00,BKN,,0.00,0.0,WeatherDisplay:10.37,2013-02-07 11:54:00,
2013-02-07 02:59:00,24.7,23.5,29.56,NE,51,8.1,8.1,95,0.00,BKN,,0.00,0.0,WeatherDisplay:10.37,2013-02-07 11:59:00,
2013-02-07 03:04:00,24.7,23.5,29.56,NE,51,3.5,3.5,95,0.00,OVC,,0.00,0.0,WeatherDisplay:10.37,2013-02-07 12:04:00,
2013-02-07 03:09:00,24.7,23.5,29.55,NE,51,6.9,6.9,95,0.00,OVC,,0.00,0.0,WeatherDisplay:10.37,2013-02-07 12:09:00,
2013-02-07 03:14:00,24.7,23.5,29.55,NE,51,4.6,4.6,95,0.00,OVC,,0.00,0.0,WeatherDisplay:10.37,2013-02-07 12:14:00,
2013-02-07 03:19:00,24.7,23.5,29.56,NE,51,3.5,3.5,95,0.00,OVC,,0.00,0.0,WeatherDisplay:10.37,2013-02-07 12:19:00,
2013-02-07 03:24:00,24.6,23.4,29.56,NE,51,6.9,6.9,95,0.00,OVC,,0.00,0.0,WeatherDisplay:10.37,2013-02-07 12:24:00,
2013-02-07 03:29:00,24.7,23.5,29.56,NE,51,3.5,3.5,95,0.00,OVC,,0.00,0.0,WeatherDisplay:10.37,2013-02-07 12:29:00,
2013-02-07 03:34:00,24.7,23.5,29.55,NE,51,3.5,3.5,95,0.00,OVC,,0.00,0.0,WeatherDisplay:10.37,2013-02-07 12:34:00,
2013-02-07 03:39:00,24.7,23.5,29.55,NE,51,4.6,4.6,95,0.00,OVC,,0.00,0.0,WeatherDisplay:10.37,2013-02-07 12:39:00,
2013-02-07 03:44:00,24.7,23.5,29.55,NE,51,4.6,4.6,95,0.00,OVC,,0.00,0.0,WeatherDisplay:10.37,2013-02-07 12:44:00,
2013-02-07 03:49:00,24.7,23.5,29.55,NE,51,5.8,5.8,95,0.00,OVC,,0.00,0.0,WeatherDisplay:10.37,2013-02-07 12:49:00,
2013-02-07 03:54:00,24.8,23.3,29.55,NE,51,4.6,4.6,94,0.00,OVC,,0.00,0.0,WeatherDisplay:10.37,2013-02-07 12:54:00,
2013-02-07 03:59:00,24.8,23.3,29.55,NE,51,3.5,3.5,94,0.00,OVC,,0.00,0.0,WeatherDisplay:10.37,2013-02-07 12:59:00,
2013-02-07 04:04:00,24.8,23.3,29.55,NE,51,3.5,3.5,94,0.00,OVC,,0.00,0.0,WeatherDisplay:10.37,2013-02-07 13:04:00,
2013-02-07 04:09:00,24.8,23.3,29.54,NE,51,2.3,2.3,94,0.00,OVC,,0.00,0.0,WeatherDisplay:10.37,2013-02-07 13:09:00,
2013-02-07 04:14:00,24.8,23.3,29.54,NE,51,3.5,3.5,94,0.00,OVC,,0.00,0.0,WeatherDisplay:10.37,2013-02-07 13:14:00,
2013-02-07 04:19:00,24.8,23.3,29.54,NE,51,2.3,2.3,94,0.00,OVC,,0.00,0.0,WeatherDisplay:10.37,2013-02-07 13:19:00,
2013-02-07 04:24:00,24.8,23.3,29.54,NE,51,1.1,1.1,94,0.00,OVC,,0.00,0.0,WeatherDisplay:10.37,2013-02-07 13:24:00,
2013-02-07 04:29:00,24.8,23.3,29.54,NE,51,2.3,2.3,94,0.00,OVC,,0.00,0.0,WeatherDisplay:10.37,2013-02-07 13:29:00,
2013-02-07 04:34:00,24.8,23.3,29.54,NE,51,1.1,1.1,94,0.00,OVC,,0.00,0.0,WeatherDisplay:10.37,2013-02-07 13:34:00,
2013-02-07 04:39:00,24.8,23.3,29.54,NE,51,3.5,3.5,94,0.00,OVC,,0.00,0.0,WeatherDisplay:10.37,2013-02-07 13:39:00,
2013-02-07 04:44:00,24.8,23.3,29.53,NE,51,3.5,3.5,94,0.00,OVC,,0.00,0.0,WeatherDisplay:10.37,2013-02-07 13:44:00,
2013-02-07 04:49:00,24.8,23.3,29.53,NE,51,2.3,2.3,94,0.00,OVC,,0.00,0.0,WeatherDisplay:10.37,2013-02-07 13:49:00,
2013-02-07 04:54:00,24.7,23.2,29.53,NE,51,1.1,1.1,94,0.00,OVC,,0.00,0.0,WeatherDisplay:10.37,2013-02-07 13:54:00,
2013-02-07 04:59:00,24.7,23.2,29.53,NE,51,2.3,2.3,94,0.00,OVC,,0.00,0.0,WeatherDisplay:10.37,2013-02-07 13:59:00,
2013-02-07 05:04:00,24.6,23.1,29.53,NE,51,1.1,1.1,94,0.00,OVC,,0.00,0.0,WeatherDisplay:10.37,2013-02-07 14:04:00,
2013-02-07 05:09:00,24.6,23.1,29.53,NE,51,2.0,2.0,94,0.00,OVC,,0.00,0.0,WeatherDisplay:10.37,2013-02-07 14:09:00,
2013-02-07 05:14:00,24.6,23.1,29.52,NE,51,4.6,4.6,94,0.00,OVC,,0.00,0.0,WeatherDisplay:10.37,2013-02-07 14:14:00,
2013-02-07 05:19:00,24.5,23.0,29.52,NE,51,1.1,1.1,94,0.00,OVC,,0.00,0.0,WeatherDisplay:10.37,2013-02-07 14:19:00,
2013-02-07 05:24:00,24.5,23.0,29.52,NE,51,3.5,3.5,94,0.00,OVC,,0.00,0.0,WeatherDisplay:10.37,2013-02-07 14:24:00,
2013-02-07 05:29:00,24.5,23.0,29.52,NE,51,4.6,4.6,94,0.00,OVC,,0.00,0.0,WeatherDisplay:10.37,2013-02-07 14:29:00,
2013-02-07 05:34:00,24.5,23.0,29.52,NE,51,2.3,2.3,94,0.00,OVC,,0.00,0.0,WeatherDisplay:10.37,2013-02-07 14:34:00,
2013-02-07 05:39:00,24.5,23.0,29.52,NE,51,2.3,2.3,94,0.00,OVC,,0.00,0.0,WeatherDisplay:10.37,2013-02-07 14:39:00,
2013-02-07 05:44:00,24.5,23.0,29.51,NE,51,3.5,3.5,94,0.00,OVC,,0.00,0.0,WeatherDisplay:10.37,2013-02-07 14:44:00,
2013-02-07 05:49:00,24.5,23.0,29.51,NE,51,3.5,3.5,94,0.00,OVC,,0.00,0.0,WeatherDisplay:10.37,2013-02-07 14:49:00,
2013-02-07 05:54:00,24.5,23.0,29.51,NE,51,3.5,3.5,94,0.00,OVC,,0.00,0.0,WeatherDisplay:10.37,2013-02-07 14:54:00,
2013-02-07 05:59:00,24.5,23.0,29.51,NE,51,2.3,2.3,94,0.00,OVC,,0.00,0.0,WeatherDisplay:10.37,2013-02-07 14:59:00,
2013-02-07 06:04:00,24.5,23.0,29.51,NE,51,2.3,2.3,94,0.00,OVC,,0.00,0.0,WeatherDisplay:10.37,2013-02-07 15:04:00,
2013-02-07 06:09:00,24.5,23.0,29.51,NE,51,2.3,2.3,94,0.00,OVC,,0.00,0.0,WeatherDisplay:10.37,2013-02-07 15:09:00,
2013-02-07 06:14:00,24.5,23.3,29.50,NE,51,3.5,3.5,95,0.00,OVC,,0.00,0.0,WeatherDisplay:10.37,2013-02-07 15:14:00,
2013-02-07 06:19:00,24.6,23.4,29.51,NE,51,3.5,3.5,95,0.00,OVC,,0.00,0.0,WeatherDisplay:10.37,2013-02-07 15:19:00,
2013-02-07 06:24:00,24.7,23.5,29.50,NE,51,3.5,3.5,95,0.00,OVC,,0.00,0.0,WeatherDisplay:10.37,2013-02-07 15:24:00,
2013-02-07 06:29:00,24.8,23.6,29.50,NE,51,3.5,3.5,95,0.00,OVC,,0.00,0.0,WeatherDisplay:10.37,2013-02-07 15:29:00,
2013-02-07 06:34:00,24.9,23.7,29.50,NE,51,4.6,4.6,95,0.00,OVC,,0.00,0.0,WeatherDisplay:10.37,2013-02-07 15:34:00,
2013-02-07 06:39:00,25.0,23.8,29.50,NE,51,5.8,5.8,95,0.00,OVC,,0.00,0.0,WeatherDisplay:10.37,2013-02-07 15:39:00,
2013-02-07 06:44:00,25.0,23.8,29.50,NE,51,3.5,3.5,95,0.00,OVC,,0.00,0.0,WeatherDisplay:10.37,2013-02-07 15:44:00,
2013-02-07 06:49:00,25.1,23.9,29.50,NE,51,3.5,3.5,95,0.00,OVC,,0.00,0.0,WeatherDisplay:10.37,2013-02-07 15:49:00,
2013-02-07 06:54:00,25.1,23.9,29.50,NE,51,3.5,3.5,95,0.00,OVC,,0.00,0.0,WeatherDisplay:10.37,2013-02-07 15:54:00,
2013-02-07 06:59:00,25.2,24.0,29.49,NE,51,2.3,2.3,95,0.00,OVC,,0.00,0.0,WeatherDisplay:10.37,2013-02-07 15:59:00,
2013-02-07 07:04:00,25.2,24.0,29.49,NE,51,3.5,3.5,95,0.00,-SN,,0.00,0.0,WeatherDisplay:10.37,2013-02-07 16:04:00,
2013-02-07 07:09:00,25.3,24.1,29.49,NE,51,3.5,3.5,95,0.00,-SN,,0.00,0.0,WeatherDisplay:10.37,2013-02-07 16:09:00,
2013-02-07 07:14:00,25.3,24.1,29.48,NE,51,5.8,5.8,95,0.00,-SN,,0.00,0.0,WeatherDisplay:10.37,2013-02-07 16:14:00,
2013-02-07 07:19:00,25.3,24.1,29.48,NE,51,3.5,3.5,95,0.00,-SN,,0.00,0.0,WeatherDisplay:10.37,2013-02-07 16:19:00,
2013-02-07 07:24:00,25.3,24.1,29.47,NE,51,5.8,5.8,95,0.00,-SN,,0.00,0.0,WeatherDisplay:10.37,2013-02-07 16:24:00,
2013-02-07 07:29:00,25.3,24.1,29.47,NE,51,5.8,5.8,95,0.00,-SN,,0.00,0.0,WeatherDisplay:10.37,2013-02-07 16:29:00,
2013-02-07 07:34:00,25.4,24.2,29.47,NE,51,6.9,6.9,95,0.01,-SN,,0.01,0.0,WeatherDisplay:10.37,2013-02-07 16:34:00,
2013-02-07 07:39:00,25.4,23.9,29.47,NE,51,5.8,5.8,94,0.01,-SN,,0.01,0.0,WeatherDisplay:10.37,2013-02-07 16:39:00,
2013-02-07 07:44:00,25.4,23.9,29.47,ENE,59,10.4,10.4,94,0.01,-SN,,0.01,0.0,WeatherDisplay:10.37,2013-02-07 16:44:00,
2013-02-07 07:49:00,25.4,23.9,29.47,East,98,7.0,7.0,94,0.01,-SN,,0.01,0.0,WeatherDisplay:10.37,2013-02-07 16:49:00,
2013-02-07 07:54:00,25.4,23.9,29.47,ENE,67,9.2,9.2,94,0.01,-SN,,0.01,0.0,WeatherDisplay:10.37,2013-02-07 16:54:00,
2013-02-07 07:59:00,25.4,23.9,29.46,ENE,57,4.6,4.7,94,0.01,-SN,,0.01,0.0,WeatherDisplay:10.37,2013-02-07 16:59:00,
2013-02-07 08:04:00,25.3,23.8,29.46,ESE,111,4.6,4.6,94,0.02,-SN,,0.02,0.0,WeatherDisplay:10.37,2013-02-07 17:04:00,
2013-02-07 08:09:00,25.3,23.8,29.46,ESE,113,4.6,4.6,94,0.02,-SN,,0.02,0.0,WeatherDisplay:10.37,2013-02-07 17:09:00,
2013-02-07 08:14:00,25.3,23.8,29.46,ESE,107,4.6,4.6,94,0.02,-SN,,0.02,0.0,WeatherDisplay:10.37,2013-02-07 17:14:00,
2013-02-07 08:19:00,25.3,23.8,29.46,East,92,9.0,9.0,94,0.02,-SN,,0.02,0.0,WeatherDisplay:10.37,2013-02-07 17:19:00,
2013-02-07 08:24:00,25.3,23.8,29.45,East,94,8.1,8.1,94,0.02,-SN,,0.02,0.0,WeatherDisplay:10.37,2013-02-07 17:24:00,
2013-02-07 08:29:00,25.3,23.8,29.45,East,96,5.8,5.8,94,0.02,-SN,,0.02,0.0,WeatherDisplay:10.37,2013-02-07 17:29:00,
2013-02-07 08:34:00,25.3,23.8,29.45,ENE,70,9.2,9.2,94,0.01,-SN,,0.02,0.0,WeatherDisplay:10.37,2013-02-07 17:34:00,
2013-02-07 08:39:00,25.2,23.7,29.44,ENE,71,4.6,4.6,94,0.01,-SN,,0.02,0.0,WeatherDisplay:10.37,2013-02-07 17:39:00,
2013-02-07 08:42:00,25.2,23.7,29.44,East,87,5.0,5.0,94,0.01,-SN,,0.02,0.0,WeatherDisplay:10.37,2013-02-07 17:42:00,
2013-02-07 08:47:00,25.2,23.7,29.43,NE,55,6.9,6.9,94,0.01,-SN,,0.02,0.0,WeatherDisplay:10.37,2013-02-07 17:47:00,
2013-02-07 08:52:00,25.2,23.7,29.43,NE,54,4.6,4.6,94,0.01,-SN,,0.02,0.0,WeatherDisplay:10.37,2013-02-07 17:52:00,
2013-02-07 08:57:00,25.2,23.7,29.43,East,83,3.5,3.5,94,0.01,-SN,,0.02,0.0,WeatherDisplay:10.37,2013-02-07 17:57:00,
2013-02-07 09:02:00,25.2,23.7,29.43,ENE,69,4.6,4.6,94,0.01,-SN,,0.03,0.0,WeatherDisplay:10.37,2013-02-07 18:02:00,
2013-02-07 09:07:00,25.2,23.7,29.42,ENE,61,5.8,5.8,94,0.01,-SN,,0.03,0.0,WeatherDisplay:10.37,2013-02-07 18:07:00,
2013-02-07 09:12:00,25.2,23.7,29.42,NE,53,6.9,6.9,94,0.01,-SN,,0.03,0.0,WeatherDisplay:10.37,2013-02-07 18:12:00,
2013-02-07 09:17:00,25.2,23.7,29.42,East,87,3.5,3.5,94,0.01,-SN,,0.03,0.0,WeatherDisplay:10.37,2013-02-07 18:17:00,
2013-02-07 09:22:00,25.2,23.7,29.42,NE,50,8.1,8.1,94,0.01,-SN,,0.03,0.0,WeatherDisplay:10.37,2013-02-07 18:22:00,
2013-02-07 09:27:00,25.2,23.7,29.42,East,93,4.6,4.6,94,0.01,-SN,,0.03,0.0,WeatherDisplay:10.37,2013-02-07 18:27:00,
2013-02-07 09:32:00,25.3,23.8,29.42,East,84,5.0,5.0,94,0.01,-SN,,0.03,0.0,WeatherDisplay:10.37,2013-02-07 18:32:00,
2013-02-07 09:37:00,25.4,23.9,29.41,ENE,63,8.1,8.1,94,0.01,-SN,,0.03,0.0,WeatherDisplay:10.37,2013-02-07 18:37:00,
2013-02-07 09:42:00,25.4,23.9,29.41,East,82,3.5,3.5,94,0.01,-SN,,0.03,0.0,WeatherDisplay:10.37,2013-02-07 18:42:00,
2013-02-07 09:47:00,25.6,24.1,29.40,NE,42,6.9,6.9,94,0.01,-SN,,0.03,5.0,WeatherDisplay:10.37,2013-02-07 18:47:00,
2013-02-07 09:52:00,25.6,24.1,29.40,ENE,59,8.1,8.1,94,0.01,-SN,,0.03,7.0,WeatherDisplay:10.37,2013-02-07 18:52:00,
2013-02-07 09:57:00,25.7,24.5,29.39,ENE,73,8.1,8.1,95,0.01,-SN,,0.03,7.0,WeatherDisplay:10.37,2013-02-07 18:57:00,
2013-02-07 10:02:00,25.9,24.7,29.39,NE,38,7.0,7.0,95,0.00,-SN,,0.03,7.0,WeatherDisplay:10.37,2013-02-07 19:02:00,
2013-02-07 10:07:00,26.0,24.8,29.40,East,86,6.9,6.9,95,0.00,-SN,,0.03,5.0,WeatherDisplay:10.37,2013-02-07 19:07:00,
2013-02-07 10:12:00,26.1,24.6,29.39,East,80,6.0,6.0,94,0.00,-SN,,0.03,0.0,WeatherDisplay:10.37,2013-02-07 19:12:00,
2013-02-07 10:17:00,26.2,24.7,29.39,East,92,7.0,7.0,94,0.00,-SN,,0.03,5.0,WeatherDisplay:10.37,2013-02-07 19:17:00,
2013-02-07 10:22:00,26.2,24.7,29.38,ENE,66,6.9,6.9,94,0.00,-SN,,0.03,5.0,WeatherDisplay:10.37,2013-02-07 19:22:00,
2013-02-07 10:27:00,26.3,25.1,29.38,East,86,8.1,8.1,95,0.00,-SN,,0.03,7.0,WeatherDisplay:10.37,2013-02-07 19:27:00,
2013-02-07 10:32:00,26.4,25.2,29.38,NE,53,3.5,3.5,95,0.00,OVC,,0.03,7.0,WeatherDisplay:10.37,2013-02-07 19:32:00,
2013-02-07 10:37:00,26.5,25.3,29.37,NE,45,6.9,6.9,95,0.00,OVC,,0.03,9.0,WeatherDisplay:10.37,2013-02-07 19:37:00,
2013-02-07 10:42:00,26.6,25.4,29.37,NE,46,5.8,5.8,95,0.00,OVC,,0.03,7.0,WeatherDisplay:10.37,2013-02-07 19:42:00,
2013-02-07 10:47:00,26.6,25.1,29.37,SSE,148,10.4,10.4,94,0.00,OVC,,0.03,7.0,WeatherDisplay:10.37,2013-02-07 19:47:00,
2013-02-07 10:52:00,26.7,25.2,29.36,NNE,32,4.6,4.6,94,0.00,OVC,,0.03,7.0,WeatherDisplay:10.37,2013-02-07 19:52:00,
2013-02-07 10:57:00,26.7,25.5,29.36,ENE,71,4.6,4.6,95,0.00,OVC,,0.03,5.0,WeatherDisplay:10.37,2013-02-07 19:57:00,
2013-02-07 11:02:00,26.8,25.6,29.35,NNE,23,11.5,11.5,95,0.00,-SN,,0.03,7.0,WeatherDisplay:10.37,2013-02-07 20:02:00,
2013-02-07 11:07:00,26.8,25.6,29.35,NE,40,9.2,9.2,95,0.00,-SN,,0.03,7.0,WeatherDisplay:10.37,2013-02-07 20:07:00,
2013-02-07 11:12:00,26.9,25.7,29.35,NE,41,9.2,9.2,95,0.00,-SN,,0.03,9.0,WeatherDisplay:10.37,2013-02-07 20:12:00,
2013-02-07 11:17:00,26.9,25.7,29.35,NE,43,11.5,11.5,95,0.00,-SN,,0.03,11.0,WeatherDisplay:10.37,2013-02-07 20:17:00,
2013-02-07 11:22:00,27.0,25.8,29.34,ENE,63,5.8,5.8,95,0.00,-SN,,0.03,14.0,WeatherDisplay:10.37,2013-02-07 20:22:00,
2013-02-07 11:27:00,27.1,25.6,29.34,NE,46,11.5,11.5,94,0.00,-SN,,0.03,12.0,WeatherDisplay:10.37,2013-02-07 20:27:00,
2013-02-07 11:32:00,27.1,25.6,29.34,NE,51,10.4,10.4,94,0.00,-SN,,0.03,9.0,WeatherDisplay:10.37,2013-02-07 20:32:00,
2013-02-07 11:37:00,27.2,25.7,29.34,NE,46,4.6,4.6,94,0.00,-SN,,0.03,5.0,WeatherDisplay:10.37,2013-02-07 20:37:00,
2013-02-07 11:42:00,27.2,25.7,29.34,ENE,72,8.1,8.1,94,0.00,-SN,,0.03,7.0,WeatherDisplay:10.37,2013-02-07 20:42:00,
2013-02-07 11:47:00,27.3,25.8,29.34,NNE,16,11.5,11.5,94,0.00,-SN,,0.03,9.0,WeatherDisplay:10.37,2013-02-07 20:47:00,
2013-02-07 11:52:00,27.3,25.8,29.34,NE,41,6.9,6.9,94,0.00,-SN,,0.03,7.0,WeatherDisplay:10.37,2013-02-07 20:52:00,
2013-02-07 11:57:00,27.3,25.8,29.34,ENE,57,8.1,8.1,94,0.00,-SN,,0.03,7.0,WeatherDisplay:10.37,2013-02-07 20:57:00,
2013-02-07 12:02:00,27.3,25.8,29.34,East,84,5.0,5.0,94,0.00,-SN,,0.03,7.0,WeatherDisplay:10.37,2013-02-07 21:02:00,
2013-02-07 12:07:00,27.3,25.8,29.34,East,93,6.9,6.9,94,0.00,-SN,,0.03,7.0,WeatherDisplay:10.37,2013-02-07 21:07:00,
2013-02-07 12:12:00,27.3,25.8,29.33,ENE,61,5.8,5.8,94,0.00,-SN,,0.03,7.0,WeatherDisplay:10.37,2013-02-07 21:12:00,
2013-02-07 12:17:00,27.2,25.7,29.33,NNE,30,10.4,10.4,94,0.00,-SN,,0.03,5.0,WeatherDisplay:10.37,2013-02-07 21:17:00,
2013-02-07 12:22:00,27.2,25.7,29.33,ENE,78,7.0,7.0,94,0.00,-SN,,0.03,5.0,WeatherDisplay:10.37,2013-02-07 21:22:00,
2013-02-07 12:27:00,27.2,25.7,29.32,NE,55,11.5,11.5,94,0.00,-SN,,0.03,5.0,WeatherDisplay:10.37,2013-02-07 21:27:00,
2013-02-07 12:32:00,27.1,25.6,29.32,NE,44,8.1,8.1,94,0.00,-SN,,0.03,5.0,WeatherDisplay:10.37,2013-02-07 21:32:00,
2013-02-07 12:37:00,27.1,25.6,29.32,North,11,12.0,12.0,94,0.00,-SN,,0.03,5.0,WeatherDisplay:10.37,2013-02-07 21:37:00,
2013-02-07 12:42:00,27.1,25.6,29.32,ENE,77,8.1,8.1,94,0.00,-SN,,0.03,5.0,WeatherDisplay:10.37,2013-02-07 21:42:00,
2013-02-07 12:47:00,27.1,25.6,29.32,NE,43,6.0,6.0,94,0.00,-SN,,0.03,5.0,WeatherDisplay:10.37,2013-02-07 21:47:00,
2013-02-07 12:52:00,27.1,25.6,29.32,ENE,71,8.1,8.1,94,0.00,-SN,,0.03,5.0,WeatherDisplay:10.37,2013-02-07 21:52:00,
2013-02-07 12:57:00,27.1,25.6,29.32,NE,55,9.2,9.2,94,0.00,-SN,,0.03,5.0,WeatherDisplay:10.37,2013-02-07 21:57:00,
2013-02-07 13:02:00,27.1,25.6,29.32,NNE,28,5.8,5.8,94,0.00,-SN,,0.03,5.0,WeatherDisplay:10.37,2013-02-07 22:02:00,
2013-02-07 13:07:00,27.0,25.5,29.32,ENE,57,10.4,10.4,94,0.00,-SN,,0.03,5.0,WeatherDisplay:10.37,2013-02-07 22:07:00,
2013-02-07 13:12:00,27.0,25.5,29.32,ENE,71,9.2,9.2,94,0.00,-SN,,0.03,5.0,WeatherDisplay:10.37,2013-02-07 22:12:00,
2013-02-07 13:17:00,27.1,25.9,29.32,ENE,63,10.4,10.4,95,0.00,-SN,,0.03,5.0,WeatherDisplay:10.37,2013-02-07 22:17:00,
2013-02-07 13:22:00,27.0,25.8,29.31,NE,54,10.4,10.4,95,0.00,-SN,,0.03,5.0,WeatherDisplay:10.37,2013-02-07 22:22:00,
2013-02-07 13:27:00,27.1,25.9,29.31,NE,54,9.2,9.2,95,0.00,-SN,,0.03,5.0,WeatherDisplay:10.37,2013-02-07 22:27:00,
2013-02-07 13:32:00,27.1,25.9,29.31,NE,49,8.1,8.1,95,0.00, +SN,,0.03,5.0,WeatherDisplay:10.37,2013-02-07 22:32:00,
2013-02-07 13:37:00,27.1,25.9,29.31,East,85,8.1,8.1,95,0.00, +SN,,0.03,7.0,WeatherDisplay:10.37,2013-02-07 22:37:00,
2013-02-07 13:42:00,27.2,26.0,29.31,East,80,5.8,5.8,95,0.00, +SN,,0.03,7.0,WeatherDisplay:10.37,2013-02-07 22:42:00,
2013-02-07 13:47:00,27.2,26.0,29.30,NE,55,6.0,6.0,95,0.00, +SN,,0.03,5.0,WeatherDisplay:10.37,2013-02-07 22:47:00,
2013-02-07 13:52:00,27.2,26.0,29.30,ENE,65,5.8,5.8,95,0.00, +SN,,0.03,5.0,WeatherDisplay:10.37,2013-02-07 22:52:00,
2013-02-07 13:57:00,27.3,26.1,29.30,NNE,28,8.0,8.0,95,0.00, +SN,,0.03,0.0,WeatherDisplay:10.37,2013-02-07 22:57:00,
2013-02-07 14:02:00,27.3,26.1,29.30,NNE,28,6.9,6.9,95,0.02,RA,,0.05,5.0,WeatherDisplay:10.37,2013-02-07 23:02:00,
2013-02-07 14:07:00,27.3,26.1,29.30,NE,40,4.6,4.6,95,0.02,RA,,0.05,5.0,WeatherDisplay:10.37,2013-02-07 23:07:00,
2013-02-07 14:12:00,27.4,26.2,29.30,NE,36,9.2,9.2,95,0.02,OVC,,0.05,5.0,WeatherDisplay:10.37,2013-02-07 23:12:00,
2013-02-07 14:17:00,27.4,26.2,29.30,East,92,6.9,6.9,95,0.02,OVC,,0.05,5.0,WeatherDisplay:10.37,2013-02-07 23:17:00,
2013-02-07 14:22:00,27.5,26.3,29.30,NNE,19,11.5,11.5,95,0.02,OVC,,0.05,5.0,WeatherDisplay:10.37,2013-02-07 23:22:00,
2013-02-07 14:27:00,27.5,26.3,29.30,NE,38,8.1,8.1,95,0.02,OVC,,0.05,7.0,WeatherDisplay:10.37,2013-02-07 23:27:00,
2013-02-07 14:32:00,27.5,26.3,29.30,ENE,75,4.6,4.6,95,0.02,OVC,,0.05,9.0,WeatherDisplay:10.37,2013-02-07 23:32:00,
2013-02-07 14:37:00,27.5,26.3,29.30,NE,52,8.1,8.1,95,0.02,OVC,,0.05,7.0,WeatherDisplay:10.37,2013-02-07 23:37:00,
2013-02-07 14:42:00,27.5,26.3,29.30,ENE,67,6.9,6.9,95,0.02,OVC,,0.05,0.0,WeatherDisplay:10.37,2013-02-07 23:42:00,
2013-02-07 14:47:00,27.5,26.3,29.30,ENE,71,4.6,4.6,95,0.02,OVC,,0.05,0.0,WeatherDisplay:10.37,2013-02-07 23:47:00,
2013-02-07 14:52:00,27.5,26.3,29.30,NE,34,6.0,6.0,95,0.02,OVC,,0.05,7.0,WeatherDisplay:10.37,2013-02-07 23:52:00,
2013-02-07 14:57:00,27.5,26.3,29.31,NE,53,5.8,5.8,95,0.02,OVC,,0.05,0.0,WeatherDisplay:10.37,2013-02-07 23:57:00,
2013-02-07 15:02:00,27.5,26.3,29.31,East,84,7.0,7.0,95,0.00, +SN,,0.05,0.0,WeatherDisplay:10.37,2013-02-08 00:02:00,
2013-02-07 15:07:00,27.5,26.3,29.31,ENE,63,3.5,3.5,95,0.00, +SN,,0.05,0.0,WeatherDisplay:10.37,2013-02-08 00:07:00,
2013-02-07 15:12:00,27.5,26.3,29.30,ENE,60,3.5,3.5,95,0.00, +SN,,0.05,0.0,WeatherDisplay:10.37,2013-02-08 00:12:00,
2013-02-07 15:17:00,27.5,26.3,29.30,ENE,78,3.5,3.5,95,0.00, +SN,,0.05,0.0,WeatherDisplay:10.37,2013-02-08 00:17:00,
2013-02-07 15:22:00,27.5,26.3,29.31,East,91,6.9,6.9,95,0.00, +SN,,0.05,0.0,WeatherDisplay:10.37,2013-02-08 00:22:00,
2013-02-07 15:27:00,27.5,26.3,29.30,NE,49,6.9,6.9,95,0.00, +SN,,0.05,0.0,WeatherDisplay:10.37,2013-02-08 00:27:00,
2013-02-07 15:32:00,27.5,26.3,29.30,NE,53,6.9,6.9,95,0.00, +SN,,0.05,0.0,WeatherDisplay:10.37,2013-02-08 00:32:00,
2013-02-07 15:37:00,27.5,26.3,29.30,ENE,61,6.9,6.9,95,0.00, +SN,,0.05,5.0,WeatherDisplay:10.37,2013-02-08 00:37:00,
2013-02-07 15:42:00,27.5,26.3,29.29,East,86,6.0,6.0,95,0.00, +SN,,0.05,7.0,WeatherDisplay:10.37,2013-02-08 00:42:00,
2013-02-07 15:47:00,27.6,26.4,29.29,East,80,6.9,6.9,95,0.00, +SN,,0.05,7.0,WeatherDisplay:10.37,2013-02-08 00:47:00,
2013-02-07 15:52:00,27.6,26.4,29.29,East,81,6.0,6.0,95,0.00, +SN,,0.05,7.0,WeatherDisplay:10.37,2013-02-08 00:52:00,
2013-02-07 15:57:00,27.6,26.4,29.29,East,96,5.0,5.0,95,0.00, +SN,,0.05,9.0,WeatherDisplay:10.37,2013-02-08 00:57:00,
2013-02-07 16:02:00,27.6,26.4,29.30,NE,51,5.8,5.8,95,0.02, +SN,,0.07,7.0,WeatherDisplay:10.37,2013-02-08 01:02:00,
2013-02-07 16:07:00,27.6,26.4,29.30,East,87,7.0,7.0,95,0.02, +SN,,0.07,5.0,WeatherDisplay:10.37,2013-02-08 01:07:00,
2013-02-07 16:12:00,27.6,26.4,29.30,ENE,58,6.9,6.9,95,0.02, +SN,,0.07,7.0,WeatherDisplay:10.37,2013-02-08 01:12:00,
2013-02-07 16:17:00,27.7,26.5,29.30,East,90,5.8,5.8,95,0.02,,,0.07,11.0,WeatherDisplay:10.37,2013-02-08 01:17:00,
2013-02-07 16:22:00,27.7,26.5,29.30,East,92,8.1,8.1,95,0.02,,,0.07,11.0,WeatherDisplay:10.37,2013-02-08 01:22:00,
2013-02-07 16:27:00,27.8,26.6,29.30,NNE,27,4.0,4.0,95,0.02,,,0.07,12.0,WeatherDisplay:10.37,2013-02-08 01:27:00,
2013-02-07 16:33:00,27.9,26.7,29.29,ENE,75,9.2,9.2,95,0.02,BKN,,0.07,16.0,WeatherDisplay:10.37,2013-02-08 01:33:00,
2013-02-07 16:38:00,27.9,26.7,29.28,ENE,66,6.9,6.9,95,0.02,BKN,,0.07,14.0,WeatherDisplay:10.37,2013-02-08 01:38:00,
2013-02-07 16:43:00,28.0,26.8,29.28,ENE,71,6.9,6.9,95,0.02,,,0.07,9.0,WeatherDisplay:10.37,2013-02-08 01:43:00,
2013-02-07 16:48:00,27.9,26.7,29.28,East,85,9.2,9.2,95,0.02,,,0.07,5.0,WeatherDisplay:10.37,2013-02-08 01:48:00,
2013-02-07 16:53:00,27.9,26.7,29.28,ENE,78,10.4,10.4,95,0.02,,,0.07,0.0,WeatherDisplay:10.37,2013-02-08 01:53:00,
2013-02-07 16:58:00,27.9,26.7,29.28,East,81,9.2,9.2,95,0.02,,,0.07,0.0,WeatherDisplay:10.37,2013-02-08 01:58:00,
2013-02-07 17:03:00,27.8,26.6,29.27,ENE,57,6.9,6.9,95,0.00,-SN,,0.07,0.0,WeatherDisplay:10.37,2013-02-08 02:03:00,
2013-02-07 17:08:00,27.8,26.6,29.28,East,82,6.9,6.9,95,0.00,-SN,,0.07,0.0,WeatherDisplay:10.37,2013-02-08 02:08:00,
2013-02-07 17:13:00,27.8,26.6,29.28,NE,55,5.8,5.8,95,0.00,-SN,,0.07,0.0,WeatherDisplay:10.37,2013-02-08 02:13:00,
2013-02-07 17:18:00,27.8,26.6,29.27,ENE,63,9.2,9.2,95,0.00,-SN,,0.07,0.0,WeatherDisplay:10.37,2013-02-08 02:18:00,
2013-02-07 17:23:00,27.7,26.5,29.27,NE,55,6.9,6.9,95,0.00,-SN,,0.07,0.0,WeatherDisplay:10.37,2013-02-08 02:23:00,
2013-02-07 17:28:00,27.7,26.5,29.27,ENE,70,8.1,8.1,95,0.00,-SN,,0.07,0.0,WeatherDisplay:10.37,2013-02-08 02:28:00,
2013-02-07 17:33:00,27.7,26.5,29.27,ENE,63,6.9,6.9,95,0.00,-SN,,0.07,0.0,WeatherDisplay:10.37,2013-02-08 02:33:00,
2013-02-07 17:38:00,27.7,26.5,29.27,NE,53,6.9,6.9,95,0.00,-SN,,0.07,0.0,WeatherDisplay:10.37,2013-02-08 02:38:00,
2013-02-07 17:43:00,27.6,26.4,29.28,NNE,28,8.1,8.1,95,0.00,-SN,,0.07,0.0,WeatherDisplay:10.37,2013-02-08 02:43:00,
2013-02-07 17:48:00,27.6,26.4,29.28,NNE,14,5.8,5.8,95,0.00,OVC,,0.07,0.0,WeatherDisplay:10.37,2013-02-08 02:48:00,
2013-02-07 17:53:00,27.6,26.4,29.28,ENE,62,6.9,6.9,95,0.00,OVC,,0.07,0.0,WeatherDisplay:10.37,2013-02-08 02:53:00,
2013-02-07 17:58:00,27.6,26.4,29.28,East,80,4.6,4.6,95,0.00,OVC,,0.07,0.0,WeatherDisplay:10.37,2013-02-08 02:58:00,
2013-02-07 18:03:00,27.6,26.4,29.28,ENE,64,6.9,6.9,95,0.00,OVC,,0.07,0.0,WeatherDisplay:10.37,2013-02-08 03:03:00,
2013-02-07 18:08:00,27.6,26.4,29.28,NNE,22,5.0,5.0,95,0.00,OVC,,0.07,0.0,WeatherDisplay:10.37,2013-02-08 03:08:00,
2013-02-07 18:13:00,27.5,26.3,29.28,ENE,74,6.9,6.9,95,0.00,OVC,,0.07,0.0,WeatherDisplay:10.37,2013-02-08 03:13:00,
2013-02-07 18:18:00,27.5,26.3,29.28,East,81,8.1,8.1,95,0.00,OVC,,0.07,0.0,WeatherDisplay:10.37,2013-02-08 03:18:00,
2013-02-07 18:23:00,27.5,26.3,29.28,NE,49,6.9,6.9,95,0.00,OVC,,0.07,0.0,WeatherDisplay:10.37,2013-02-08 03:23:00,
2013-02-07 18:28:00,27.5,26.3,29.29,NE,49,6.9,6.9,95,0.00,OVC,,0.07,0.0,WeatherDisplay:10.37,2013-02-08 03:28:00,
2013-02-07 18:33:00,27.5,26.3,29.28,East,81,5.8,5.8,95,0.00,OVC,,0.07,0.0,WeatherDisplay:10.37,2013-02-08 03:33:00,
2013-02-07 18:38:00,27.5,26.3,29.29,NE,51,4.0,4.0,95,0.00,OVC,,0.07,0.0,WeatherDisplay:10.37,2013-02-08 03:38:00,
2013-02-07 18:43:00,27.5,26.3,29.29,ENE,57,9.2,9.2,95,0.00,OVC,,0.07,0.0,WeatherDisplay:10.37,2013-02-08 03:43:00,
2013-02-07 18:48:00,27.5,26.3,29.29,NE,44,8.1,8.1,95,0.00,OVC,,0.07,0.0,WeatherDisplay:10.37,2013-02-08 03:48:00,
2013-02-07 18:53:00,27.5,26.3,29.29,ENE,65,4.6,4.6,95,0.00,OVC,,0.07,0.0,WeatherDisplay:10.37,2013-02-08 03:53:00,
2013-02-07 18:58:00,27.5,26.3,29.29,East,88,3.5,3.5,95,0.00,OVC,,0.07,0.0,WeatherDisplay:10.37,2013-02-08 03:58:00,
2013-02-07 19:03:00,27.5,26.3,29.30,East,84,6.0,6.0,95,0.00,OVC,,0.07,0.0,WeatherDisplay:10.37,2013-02-08 04:03:00,
2013-02-07 19:08:00,27.5,26.3,29.30,ENE,57,3.5,3.5,95,0.00,OVC,,0.07,0.0,WeatherDisplay:10.37,2013-02-08 04:08:00,
2013-02-07 19:13:00,27.5,26.3,29.30,ENE,64,4.6,4.6,95,0.00,OVC,,0.07,0.0,WeatherDisplay:10.37,2013-02-08 04:13:00,
2013-02-07 19:18:00,27.5,26.3,29.30,East,79,3.5,3.5,95,0.00,OVC,,0.07,0.0,WeatherDisplay:10.37,2013-02-08 04:18:00,
2013-02-07 19:23:00,27.5,26.3,29.30,ENE,65,6.9,6.9,95,0.00,OVC,,0.07,0.0,WeatherDisplay:10.37,2013-02-08 04:23:00,
2013-02-07 19:28:00,27.5,26.3,29.30,East,90,6.9,6.9,95,0.00,OVC,,0.07,0.0,WeatherDisplay:10.37,2013-02-08 04:28:00,
2013-02-07 19:33:00,27.5,26.3,29.30,ENE,70,3.5,3.5,95,0.00,OVC,,0.07,0.0,WeatherDisplay:10.37,2013-02-08 04:33:00,
2013-02-07 19:38:00,27.5,26.5,29.30,ENE,58,3.5,3.5,96,0.00,OVC,,0.07,0.0,WeatherDisplay:10.37,2013-02-08 04:38:00,
2013-02-07 19:43:00,27.6,26.6,29.30,NE,36,4.6,4.6,96,0.00,OVC,,0.07,0.0,WeatherDisplay:10.37,2013-02-08 04:43:00,
2013-02-07 19:48:00,27.6,26.6,29.31,ENE,77,3.5,3.5,96,0.00,OVC,,0.07,0.0,WeatherDisplay:10.37,2013-02-08 04:48:00,
2013-02-07 19:53:00,27.6,26.6,29.31,East,79,3.5,3.5,96,0.00,OVC,,0.07,0.0,WeatherDisplay:10.37,2013-02-08 04:53:00,
2013-02-07 19:58:00,27.6,26.6,29.31,ENE,74,2.3,2.3,96,0.00,OVC,,0.07,0.0,WeatherDisplay:10.37,2013-02-08 04:58:00,
2013-02-07 20:00:00,27.6,26.6,29.31,ENE,74,2.3,2.3,96,0.00,OVC,,0.07,0.0,WeatherDisplay:10.37,2013-02-08 05:00:00,
2013-02-07 20:05:00,27.6,26.4,29.31,ENE,78,2.3,2.3,95,0.00,OVC,,0.07,0.0,WeatherDisplay:10.37,2013-02-08 05:05:00,
2013-02-07 20:10:00,27.6,26.4,29.31,East,87,1.1,1.1,95,0.00,OVC,,0.07,0.0,WeatherDisplay:10.37,2013-02-08 05:10:00,
2013-02-07 20:15:00,27.6,26.4,29.32,East,87,2.3,2.3,95,0.00,OVC,,0.07,0.0,WeatherDisplay:10.37,2013-02-08 05:15:00,
2013-02-07 20:20:00,27.6,26.4,29.32,East,87,0.0,0.0,95,0.00,OVC,,0.07,0.0,WeatherDisplay:10.37,2013-02-08 05:20:00,
2013-02-07 20:25:00,27.6,26.4,29.32,East,87,2.3,2.3,95,0.00,OVC,,0.07,0.0,WeatherDisplay:10.37,2013-02-08 05:25:00,
2013-02-07 20:30:00,27.6,26.4,29.32,East,87,0.0,0.0,95,0.00,OVC,,0.07,0.0,WeatherDisplay:10.37,2013-02-08 05:30:00,
2013-02-07 20:35:00,27.5,26.3,29.32,East,87,1.1,0.0,95,0.00,OVC,,0.07,0.0,WeatherDisplay:10.37,2013-02-08 05:35:00,
2013-02-07 20:40:00,27.5,26.3,29.32,East,87,0.0,0.0,95,0.00,OVC,,0.07,0.0,WeatherDisplay:10.37,2013-02-08 05:40:00,
2013-02-07 20:45:00,27.5,26.3,29.32,East,87,1.1,1.1,95,0.00,OVC,,0.07,0.0,WeatherDisplay:10.37,2013-02-08 05:45:00,
2013-02-07 20:50:00,27.5,26.3,29.33,East,87,0.0,0.0,95,0.00,OVC,,0.07,0.0,WeatherDisplay:10.37,2013-02-08 05:50:00,
2013-02-07 20:55:00,27.4,26.2,29.33,East,87,0.0,0.0,95,0.00,OVC,,0.07,0.0,WeatherDisplay:10.37,2013-02-08 05:55:00,
2013-02-07 21:00:00,27.4,26.2,29.33,East,87,0.0,0.0,95,0.00,OVC,,0.07,0.0,WeatherDisplay:10.37,2013-02-08 06:00:00,
2013-02-07 21:05:00,27.3,26.1,29.33,East,87,0.0,0.0,95,0.00,OVC,,0.07,0.0,WeatherDisplay:10.37,2013-02-08 06:05:00,
2013-02-07 21:10:00,27.3,26.1,29.33,East,87,0.0,0.0,95,0.00,OVC,,0.07,0.0,WeatherDisplay:10.37,2013-02-08 06:10:00,
2013-02-07 21:15:00,27.2,26.0,29.33,East,87,0.0,0.0,95,0.00,OVC,,0.07,0.0,WeatherDisplay:10.37,2013-02-08 06:15:00,
2013-02-07 21:20:00,27.2,26.0,29.34,East,87,0.0,0.0,95,0.00,OVC,,0.07,0.0,WeatherDisplay:10.37,2013-02-08 06:20:00,
2013-02-07 21:25:00,27.2,26.0,29.34,East,87,0.0,0.0,95,0.00,OVC,,0.07,0.0,WeatherDisplay:10.37,2013-02-08 06:25:00,
2013-02-07 21:30:00,27.1,25.9,29.34,East,87,0.0,0.0,95,0.00,OVC,,0.07,0.0,WeatherDisplay:10.37,2013-02-08 06:30:00,
2013-02-07 21:35:00,27.1,25.9,29.34,East,87,0.0,0.0,95,0.00,OVC,,0.07,0.0,WeatherDisplay:10.37,2013-02-08 06:35:00,
2013-02-07 21:40:00,27.1,25.9,29.34,East,87,0.0,0.0,95,0.00,OVC,,0.07,0.0,WeatherDisplay:10.37,2013-02-08 06:40:00,
2013-02-07 21:45:00,27.0,25.8,29.34,East,87,0.0,0.0,95,0.00,OVC,,0.07,0.0,WeatherDisplay:10.37,2013-02-08 06:45:00,
2013-02-07 21:50:00,27.0,25.8,29.34,East,87,0.0,0.0,95,0.00,OVC,,0.07,0.0,WeatherDisplay:10.37,2013-02-08 06:50:00,
2013-02-07 21:55:00,27.0,26.0,29.34,East,87,0.0,0.0,96,0.00,OVC,,0.07,0.0,WeatherDisplay:10.37,2013-02-08 06:55:00,
2013-02-07 22:00:00,26.9,25.9,29.35,East,87,0.0,0.0,96,0.00,OVC,,0.07,0.0,WeatherDisplay:10.37,2013-02-08 07:00:00,
2013-02-07 22:05:00,26.9,25.9,29.35,East,87,0.0,0.0,96,0.00,OVC,,0.07,0.0,WeatherDisplay:10.37,2013-02-08 07:05:00,
2013-02-07 22:10:00,26.9,25.7,29.35,East,87,0.0,0.0,95,0.00,OVC,,0.07,0.0,WeatherDisplay:10.37,2013-02-08 07:10:00,
2013-02-07 22:15:00,26.9,25.9,29.35,East,87,0.0,0.0,96,0.00,OVC,,0.07,0.0,WeatherDisplay:10.37,2013-02-08 07:15:00,
2013-02-07 22:20:00,26.9,25.9,29.35,East,87,0.0,0.0,96,0.00,OVC,,0.07,0.0,WeatherDisplay:10.37,2013-02-08 07:20:00,
2013-02-07 22:25:00,27.0,26.0,29.35,East,87,0.0,0.0,96,0.00,OVC,,0.07,0.0,WeatherDisplay:10.37,2013-02-08 07:25:00,
2013-02-07 22:30:00,27.1,26.1,29.35,East,87,0.0,0.0,96,0.00,OVC,,0.07,0.0,WeatherDisplay:10.37,2013-02-08 07:30:00,
2013-02-07 22:35:00,27.1,26.1,29.36,East,87,0.0,0.0,96,0.00,OVC,,0.07,0.0,WeatherDisplay:10.37,2013-02-08 07:35:00,
2013-02-07 22:40:00,27.1,26.1,29.36,East,87,0.0,0.0,96,0.00,OVC,,0.07,0.0,WeatherDisplay:10.37,2013-02-08 07:40:00,
2013-02-07 22:45:00,27.0,26.0,29.36,East,87,0.0,0.0,96,0.00,OVC,,0.07,0.0,WeatherDisplay:10.37,2013-02-08 07:45:00,
2013-02-07 22:50:00,26.9,25.9,29.36,East,87,0.0,0.0,96,0.00,OVC,,0.07,0.0,WeatherDisplay:10.37,2013-02-08 07:50:00,
2013-02-07 22:55:00,26.8,25.6,29.36,East,87,0.0,0.0,95,0.00,OVC,,0.07,0.0,WeatherDisplay:10.37,2013-02-08 07:55:00,
2013-02-07 23:00:00,26.8,25.6,29.36,East,87,0.0,0.0,95,0.00,OVC,,0.07,0.0,WeatherDisplay:10.37,2013-02-08 08:00:00,
2013-02-07 23:05:00,26.8,25.8,29.36,East,87,0.0,0.0,96,0.00,-SN,,0.07,0.0,WeatherDisplay:10.37,2013-02-08 08:05:00,
2013-02-07 23:10:00,26.8,25.8,29.37,East,87,0.0,0.0,96,0.00,-SN,,0.07,0.0,WeatherDisplay:10.37,2013-02-08 08:10:00,
2013-02-07 23:15:00,26.7,25.5,29.37,East,87,0.0,0.0,95,0.00,-SN,,0.07,0.0,WeatherDisplay:10.37,2013-02-08 08:15:00,
2013-02-07 23:20:00,26.6,25.4,29.37,East,87,0.0,0.0,95,0.00,-SN,,0.07,0.0,WeatherDisplay:10.37,2013-02-08 08:20:00,
2013-02-07 23:25:00,26.5,25.3,29.37,East,87,0.0,0.0,95,0.00,-SN,,0.07,0.0,WeatherDisplay:10.37,2013-02-08 08:25:00,
2013-02-07 23:30:00,26.5,25.3,29.37,East,87,0.0,0.0,95,0.00,-SN,,0.07,0.0,WeatherDisplay:10.37,2013-02-08 08:30:00,
2013-02-07 23:35:00,26.4,25.4,29.37,East,87,0.0,0.0,96,0.00,-SN,,0.07,0.0,WeatherDisplay:10.37,2013-02-08 08:35:00,
2013-02-07 23:40:00,26.3,25.3,29.37,East,87,0.0,0.0,96,0.00,-SN,,0.07,0.0,WeatherDisplay:10.37,2013-02-08 08:40:00,
2013-02-07 23:45:00,26.3,25.1,29.38,East,87,0.0,0.0,95,0.00,-SN,,0.07,0.0,WeatherDisplay:10.37,2013-02-08 08:45:00,
2013-02-07 23:50:00,26.2,25.0,29.38,East,87,0.0,0.0,95,0.00,-SN,,0.07,0.0,WeatherDisplay:10.37,2013-02-08 08:50:00,
2013-02-07 23:55:00,26.1,24.9,29.38,East,87,0.0,0.0,95,0.00,-SN,,0.07,0.0,WeatherDisplay:10.37,2013-02-08 08:55:00,